Location: Penzberg
(47.7615°N, 11.3159°E)
Time: 01:33:55
(UTC+02:00)

Envisat - Visible Passes

Search period start: 28 May 2018 00:00
Search period end: 07 June 2018 00:00
Orbit: 764 x 766 km, 98.2° (Epoch: 27 May)

Date Brightness Start Highest point End Pass type
(mag) Time Alt. Az. Time Alt. Az. Time Alt. Az.
28 May 5.3 21:35:52 10° SW 21:39:49 23° W 21:43:48 10° NW visible
30 May 5.7 22:03:14 10° WSW 22:05:43 14° W 22:08:12 10° WNW visible
02 Jun 5.6 21:51:10 10° SW 21:54:24 17° W 21:57:40 10° NW visible
